Powrót do katalogu

BLACK ARROW R/B

AktywnyPO
NORAD 5581·ROCKET BODY·🇬🇧 United Kingdom

Wystrzelony Oct 28, 1971 z Woomera Range Complex

Loading…

Następne Przeloty (najbliższe 24 godziny)

TLE

ŚwieżeSource: Space-Track

Epoka: Sep 14, 2026, 09:46 UTC

1 05581U 71093B   26257.40701456  .00000817  00000-0  17000-3 0  9995
2 05581  82.0344 247.4464 0505724  88.7779 277.1255 14.00684197759091

Śledź BLACK ARROW R/B w czasie rzeczywistym z AllMySat

Download on the App Store